Flag for Micronesia Weather past 2 weeks in Colonia, Yap, Micronesia

Now
85 °F

Scattered clouds.


Feels Like: 97 °F
Forecast: 76 / 85 °F
Wind: 2 mph from North

Location: Yap Island

Current Time: Oct 23, 2014 at 11:02:39 AM

Latest Report: Oct 23, 2014 at 9:51 AM


Visibility: 12 mi

Pressure: 29.84 "Hg

Humidity: 78%

Dew point: 78 °F

Location of ColoniaLocation

Historic Weather in Colonia — Graph

°F

Colonia temperature yesterday

Maximum temperature yesterday: 86 °F (at 10:50 AM)
Minimum temperature yesterday: 77 °F (at 11:51 PM)
Average temperature yesterday: 81 °F

Past Weeks' High & Low Weather Summary

 TemperatureHumidityPressure
High88 °F (Oct 20, 12:52 PM)96% (Oct 13, 2:52 AM)29.91 "Hg (Oct 13, 2:52 AM)
Low75 °F (Oct 23, 1:51 AM)69% (Oct 19, 10:50 AM)29.67 "Hg (Oct 8, 2:55 PM)
Average82 °F85%29.81 "Hg
* Reported Oct 8 9:52 AM — Oct 23 9:51 AM, Colonia, Weather by CustomWeather, © 2014

Note: Actual official high and low records may vary slightly from our data, if they occured in-between our weather recording intervals... More about our weather records

Advertising

Colonia weather history for previous 24 hours

 ConditionsComfort  
Time TempWeatherWind HumidityBarometerVisibility
9:51 AM
Oct 23
85 °FScattered clouds.2 mph78%29.84 "Hg12 mi
8:51 AM84 °FPartly sunny.3 mph81%29.83 "Hg12 mi
5:51 AM77 °FPassing clouds.3 mph93%29.78 "Hg12 mi
4:59 AM79 °FPassing clouds.3 mph90%29.78 "Hg12 mi
3:53 AM77 °FPassing clouds.No wind94%29.76 "Hg12 mi
2:53 AM77 °FPassing clouds.No wind94%29.78 "Hg12 mi
1:51 AM75 °FPassing clouds.No wind94%29.78 "Hg12 mi
12:50 AM78 °FMostly cloudy.3 mph92%29.80 "Hg12 mi
11:51 PM
Oct 22
77 °FMostly cloudy.No wind92%29.83 "Hg12 mi
10:52 PM79 °FMostly cloudy.3 mph93%29.83 "Hg12 mi
9:52 PM78 °FMostly cloudy.No wind93%29.83 "Hg12 mi
8:54 PM79 °FMostly cloudy.No wind94%29.82 "Hg12 mi
7:55 PM80 °FMostly cloudy.2 mph93%29.79 "Hg12 mi
6:58 PM81 °FMore clouds than sun.No wind92%29.79 "Hg12 mi
5:54 PM82 °FSprinkles. More clouds than sun.No wind89%29.78 "Hg10 mi
4:51 PM84 °FMore clouds than sun.No wind83%29.75 "Hg12 mi
3:51 PM84 °FMore clouds than sun.6 mph81%29.75 "Hg12 mi
2:50 PM80 °FSprinkles. Mostly cloudy.6 mph90%29.75 "Hg7 mi
1:54 PM81 °FBroken clouds.6 mph88%29.76 "Hg12 mi
12:51 PM84 °FBroken clouds.5 mph82%29.79 "Hg12 mi
11:53 AM84 °FBroken clouds.8 mph81%29.80 "Hg12 mi
Weather by CustomWeather, © 2014

See weather overviewHow to use our weather pages